Regional Weather Roundup
Issued by NWS

Home | Current Version | Previous Version | Graphics & Text | Print | Product List | Glossary On
Versions: 1 2 3 4 5 6 7 8 9 10 11 12 13 14 15 16 17 18 19 20 21 22 23 24 25 26 27 28 29 30 31 32 33 34 35 36 37 38 39 40 41 42 43 44 45 46 47 48 49 50
833
ASUS43 KFSD 272110
RWRSD

WEATHER ROUNDUP FOR SOUTH DAKOTA
NATIONAL WEATHER SERVICE SIOUX FALLS SD
400 PM CDT MON MAR 27 2017

NOTE: "FAIR" INDICATES FEW OR NO CLOUDS BELOW 12,000 FEET WITH NO
SIGNIFICANT WEATHER AND/OR OBSTRUCTIONS TO VISIBILITY.


SDZ001>005-009-010-012>017-272200-
NORTHWEST AND NORTH CENTRAL SOUTH DAKOTA

CITY           SKY/WX    TMP DP  RH WIND       PRES   REMARKS
BUFFALO          N/A     63  29  27 SE8       29.78F
FAITH            N/A     56  39  53 MISG      29.87F
MOBRIDGE       PTSUNNY   61  34  36 S9        29.87F
$$

SDZ012>016-024>037-041>051-057-063-072>074-272200-
SOUTHWEST AND SOUTH CENTRAL SOUTH DAKOTA

CITY           SKY/WX    TMP DP  RH WIND       PRES   REMARKS
RAPID CTY ARPT SUNNY     58  38  47 MISG      29.83F
PIERRE         SUNNY     59  31  34 S9        29.88F
CUSTER         CLOUDY    49  33  54 SE8       29.84F
ELLSWORTH AFB  SUNNY     58  40  51 CALM      29.83F
PHILIP         SUNNY     63  37  38 SE8G17    29.84F
PINE RIDGE     CLOUDY    65  36  34 MISG      29.80F
SPEARFISH      FAIR      55  39  54 E13G21    29.84S
WINNER         FAIR      62  38  40 CALM      29.88F
$$

SDZ004>011-016>023-039-040-272200-
NORTHEAST SOUTH DAKOTA

CITY           SKY/WX    TMP DP  RH WIND       PRES   REMARKS
ABERDEEN       MOSUNNY   61  31  32 NE6       29.92F
WATERTOWN      PTSUNNY   57  35  43 N5        29.92F
BROOKINGS      SUNNY     57  35  43 SE6       29.92F
SISSETON         N/A     57  39  51 SE5       29.94S
$$

SDZ017-020-022-023-036>040-048>070-272200-
SOUTHEAST SOUTH DAKOTA

CITY           SKY/WX    TMP DP  RH WIND       PRES   REMARKS
SIOUX FALLS    MOSUNNY   59  37  44 CALM      29.93F
HURON          CLOUDY    58  34  40 E5        29.92F
CHAMBERLAIN    SUNNY     63  31  30 E8        29.90S
MITCHELL       SUNNY     59  33  37 S8        29.93F
YANKTON        SUNNY     55  37  50 SE3       29.93S
$$

ABBREVIATIONS USED IN REMARKS
   TC - TEMPERATURE IN CELSIUS
  WCI - WIND CHILL INDEX
   HX - HEAT INDEX
  VSB - VISIBILITY





USA.gov is the U.S. government's official web portal to all federal, state and local government web resources and services.